This demonstration page uses our WeatherBlox Daily Observations layout. Learn more.

Left ArrowRight Arrow

Hourly Observations for June 9, 2021

Temp ( °F °C ) Dew Point ( °F °C ) Humidity (%) Winds ( mph kmh ) Pressure ( in mb ) Visibility ( mi km ) Precip ( " mm )
12:53 am 00:53 Clear 82 27.8 70 21.1 67 67 SSE 15 24 29.79 1009 10 16 0.00 0.00
1:53 am 01:53 Clear 81 27.2 71 21.7 72 72 SSE 6 9 29.78 1009 7 11 0.00 0.00
2:53 am 02:53 Clear 80 26.7 70 21.1 71 71 SE 8 13 29.76 1008 7 11 0.00 0.00
3:53 am 03:53 Clear 79 26.1 70 21.1 74 74 ESE 10 17 29.75 1008 7 11 0.00 0.00
4:53 am 04:53 Hazy 78 25.6 70 21.1 76 76 ESE 12 19 29.76 1008 6 10 0.00 0.00
5:53 am 05:53 Hazy 76 24.4 70 21.1 82 82 ESE 5 7 29.77 1008 5 8 0.00 0.00
6:53 am 06:53 Hazy 75 23.9 70 21.1 84 84 SE 6 9 29.79 1009 5 8 0.00 0.00
7:53 am 07:53 Hazy 76 24.4 71 21.7 85 85 ESE 7 11 29.81 1009 4 6 0.00 0.00
8:53 am 08:53 Hazy 79 26.1 71 21.7 77 77 SSE 7 11 29.83 1010 6 10 0.00 0.00
9:53 am 09:53 Sunny 83 28.3 70 21.1 65 65 ESE 3 6 29.85 1011 7 11 0.00 0.00
10:53 am 10:53 Sunny 88 31.1 70 21.1 55 55 NE 3 6 29.85 1011 9 14 0.00 0.00
11:53 am 11:53 Sunny 94 34.4 66 18.9 40 40 VRB 5 7 29.84 1011 10 16 0.00 0.00
12:53 pm 12:53 Sunny 99 37.2 61 16.1 29 29 NE 3 6 29.83 1010 10 16 0.00 0.00
1:53 pm 13:53 Sunny 101 38.3 57 13.9 23 23 SE 9 15 29.81 1009 10 16 0.00 0.00
2:53 pm 14:53 Sunny 102 38.9 56 13.3 22 22 undefined N/A 29.78 1009 10 16 0.00 0.00
3:53 pm 15:53 Sunny 104 40 55 12.8 20 20 VRB 5 7 29.75 1008 10 16 0.00 0.00
4:53 pm 16:53 Sunny 105 40.6 53 11.7 18 18 S 5 7 29.73 1007 10 16 0.00 0.00
5:53 pm 17:53 Sunny 106 41.1 52 11.1 17 17 VRB 3 6 29.71 1006 10 16 0.00 0.00
6:53 pm 18:53 Sunny 105 40.6 50 10 16 16 Calm 29.70 1006 10 16 0.00 0.00
7:53 pm 19:53 Sunny 97 36.1 52 11.1 22 22 SSE 24 39 29.73 1007 10 16 0.00 0.00
8:53 pm 20:53 Sunny 95 35 51 10.6 23 23 SSE 16 26 29.74 1007 10 16 0.00 0.00
9:53 pm 21:53 Clear 88 31.1 62 16.7 42 42 SE 16 26 29.77 1008 10 16 0.00 0.00
10:53 pm 22:53 Clear 86 30 69 20.6 57 57 SSE 20 31 29.79 1009 10 16 0.00 0.00
11:53 pm 23:53 Clear 84 28.9 70 21.1 63 63 SSE 17 28 29.79 1009 8 13 0.00 0.00

Powered by AerisWeather